Date String (YYYY-MM-DD hh:mm:ss) UTC,Instrument flags,absolute air pressure of the measurement (hPa),sample flow rate (lpm),inlet stack bypass flow (lpm),air temperature of the measurement (°C),ambient temperature measured by the external sensor (°C),aerosol sample conditioner tube jacket temperature (°C),OPC LED temperature (°C),internal box temperature (°C),relative humidity of the measurement (%),span deviation,mass concentration of particles derived from Lorenz-Mie calculation of OPC scattering (μg/m³),mass concentration of particles derived from Lorenz-Mie calculation of OPC scattering (μg/m³),mass concentration of particles derived from Lorenz-Mie calculation of OPC scattering (μg/m³)
DateTimeUTC,F1_M11,P_M11,Q1_M11,Q2_M11,T1_M11,T2_M11,T3_M11,T4_M11,T5_M11,U1_M11,ZSPAN_M11,X2_M11,X0_M11,X1_M11
2024-02-06 00:00:00,SystemResetWarning,0827.7,5.00,000.00,024.9,024.2,000.0,033.4,026.8,15.2,0001.1,0006.69,0010.88,0006.32
2024-02-06 00:01:00,SystemResetWarning,0827.7,5.00,000.00,024.9,024.2,000.0,033.4,026.8,15.1,0000.1,0006.70,0010.45,0006.35
2024-02-06 00:02:00,SystemResetWarning,0827.7,5.00,000.00,024.9,024.2,000.0,033.4,026.8,15.1,0000.0,0006.73,0010.53,0006.38
2024-02-06 00:03:00,SystemResetWarning,0827.8,5.00,000.00,024.9,024.2,000.0,033.4,026.7,15.1,0000.5,0006.76,0011.51,0006.40
2024-02-06 00:04:00,SystemResetWarning,0827.8,5.00,000.00,024.9,024.2,000.0,033.3,026.7,15.3,0000.7,0006.80,0011.65,0006.41
2024-02-06 00:05:00,SystemResetWarning,0827.9,4.99,000.00,024.9,024.2,000.0,033.3,026.7,15.4,0000.9,0006.82,0011.35,0006.43
2024-02-06 00:06:00,SystemResetWarning,0828.0,5.00,000.00,024.9,024.2,000.0,033.3,026.7,15.5,0000.5,0006.84,0011.51,0006.46
2024-02-06 00:07:00,SystemResetWarning,0828.1,5.00,000.00,024.9,024.2,000.0,033.3,026.8,15.4,0000.5,0006.85,0011.36,0006.48
2024-02-06 00:08:00,SystemResetWarning,0828.1,5.01,000.00,024.9,024.2,000.0,033.3,026.7,15.2,0000.7,0006.86,0011.41,0006.47
2024-02-06 00:09:00,SystemResetWarning,0828.1,5.01,000.00,024.9,024.2,000.0,033.3,026.7,15.1,0000.5,0006.86,0011.46,0006.47
2024-02-06 00:10:00,SystemResetWarning,0828.1,5.01,000.00,024.9,024.2,000.0,033.3,026.7,15.1,0000.6,0006.87,0011.51,0006.49
2024-02-06 00:11:00,SystemResetWarning,0828.0,5.01,000.00,024.9,024.2,000.0,033.3,026.7,15.0,0000.8,0006.88,0011.57,0006.49
2024-02-06 00:12:00,SystemResetWarning,0827.9,5.00,000.00,024.9,024.2,000.0,033.3,026.7,15.0,0000.7,0006.88,0012.07,0006.48
2024-02-06 00:13:00,SystemResetWarning,0827.8,5.00,000.00,024.9,024.2,000.0,033.3,026.7,14.9,0000.9,0006.87,0012.18,0006.48
2024-02-06 00:14:00,SystemResetWarning,0827.8,5.00,000.00,024.9,024.1,000.0,033.3,026.7,14.9,0000.6,0006.86,0011.22,0006.49
2024-02-06 00:15:00,SystemResetWarning,0827.8,5.00,000.00,024.9,024.1,000.0,033.3,026.7,15.0,0000.5,0006.85,0010.80,0006.50
2024-02-06 00:16:00,SystemResetWarning,0827.9,5.00,000.00,024.8,024.1,000.0,033.3,026.7,15.1,0000.4,0006.81,0010.70,0006.50
2024-02-06 00:17:00,SystemResetWarning,0828.0,4.99,000.00,024.8,024.1,000.0,033.3,026.7,15.1,0000.4,0006.83,0010.73,0006.50
2024-02-06 00:18:00,SystemResetWarning,0828.0,5.00,000.00,024.8,024.1,000.0,033.3,026.6,15.0,0000.0,0006.86,0010.91,0006.52
2024-02-06 00:19:00,SystemResetWarning,0828.0,5.00,000.00,024.8,024.1,000.0,033.3,026.6,15.2,0000.0,0006.89,0011.80,0006.55
2024-02-06 00:20:00,SystemResetWarning,0827.9,5.01,000.00,024.8,024.0,000.0,033.2,026.5,15.2,0000.0,0006.90,0012.65,0006.58
2024-02-06 00:21:00,SystemResetWarning,0828.0,5.00,000.00,024.7,024.0,000.0,033.2,026.5,15.2,0000.0,0006.91,0013.17,0006.59
2024-02-06 00:22:00,SystemResetWarning,0828.0,5.00,000.00,024.7,023.9,000.0,033.2,026.5,15.1,0000.0,0006.92,0013.23,0006.59
2024-02-06 00:23:00,SystemResetWarning,0828.0,5.00,000.00,024.7,023.9,000.0,033.2,026.4,15.0,0001.6,0006.95,0012.93,0006.61
2024-02-06 00:24:00,SystemResetWarning,0828.1,5.01,000.00,024.7,023.9,000.0,033.2,026.4,15.0,0001.9,0006.94,0012.50,0006.60
2024-02-06 00:25:00,SystemResetWarning,0828.1,5.00,000.00,024.6,023.8,000.0,033.2,026.4,15.0,0002.0,0006.94,0013.17,0006.60
2024-02-06 00:26:00,SystemResetWarning,0828.2,5.00,000.00,024.6,023.8,000.0,033.1,026.3,15.0,0001.9,0006.96,0014.07,0006.59
2024-02-06 00:27:00,SystemResetWarning,0828.2,5.00,000.00,024.6,023.7,000.0,033.1,026.3,15.1,0002.0,0007.00,0014.52,0006.59
2024-02-06 00:28:00,SystemResetWarning,0828.2,4.99,000.00,024.5,023.7,000.0,033.1,026.2,15.2,0002.2,0006.99,0014.94,0006.58
2024-02-06 00:29:00,SystemResetWarning,0828.1,5.00,000.00,024.5,023.6,000.0,033.0,026.1,15.3,0002.0,0006.98,0014.87,0006.58
2024-02-06 00:30:00,SystemResetWarning,0828.1,5.00,000.00,024.4,023.6,000.0,033.0,026.1,15.3,0002.1,0006.94,0013.82,0006.57
2024-02-06 00:31:00,SystemResetWarning,0828.1,5.00,000.00,024.4,023.5,000.0,033.0,026.1,15.3,0002.4,0006.93,0012.96,0006.55
2024-02-06 00:32:00,SystemResetWarning,0828.2,5.00,000.00,024.4,023.5,000.0,032.9,026.0,15.4,0002.2,0006.92,0012.28,0006.53
2024-02-06 00:33:00,SystemResetWarning,0828.2,5.00,000.00,024.3,023.5,000.0,032.9,026.0,15.6,0002.4,0006.89,0012.47,0006.51
2024-02-06 00:34:00,SystemResetWarning,0828.2,5.02,000.00,024.3,023.4,000.0,032.9,025.9,15.7,0002.5,0006.87,0012.57,0006.49
2024-02-06 00:35:00,SystemResetWarning,0828.2,5.01,000.00,024.3,023.4,000.0,032.8,025.9,15.7,0002.6,0006.86,0013.36,0006.46
2024-02-06 00:36:00,SystemResetWarning,0828.2,5.00,000.00,024.2,023.4,000.0,032.8,025.8,15.8,0002.6,0006.86,0013.19,0006.43
2024-02-06 00:37:00,SystemResetWarning,0828.2,5.00,000.00,024.2,023.3,000.0,032.8,025.8,15.8,0002.5,0006.83,0012.42,0006.41
2024-02-06 00:38:00,SystemResetWarning,0828.2,5.00,000.00,024.1,023.3,000.0,032.7,025.7,15.8,0002.5,0006.76,0011.77,0006.38
2024-02-06 00:39:00,SystemResetWarning,0828.2,5.00,000.00,024.1,023.3,000.0,032.7,025.6,15.7,0002.5,0006.73,0011.03,0006.35
2024-02-06 00:40:00,SystemResetWarning,0828.2,5.00,000.00,024.1,023.2,000.0,032.7,025.6,15.9,0002.7,0006.70,0011.00,0006.32
2024-02-06 00:41:00,SystemResetWarning,0828.1,4.99,000.00,024.0,023.2,000.0,032.6,025.6,15.9,0002.6,0006.68,0011.21,0006.28
2024-02-06 00:42:00,SystemResetWarning,0828.1,4.99,000.00,024.0,023.2,000.0,032.6,025.6,15.7,0002.1,0006.66,0011.34,0006.25
2024-02-06 00:43:00,SystemResetWarning,0828.0,5.00,000.00,024.0,023.2,000.0,032.6,025.6,15.6,0001.7,0006.66,0011.97,0006.23
2024-02-06 00:44:00,SystemResetWarning,0828.1,5.00,000.00,024.0,023.2,000.0,032.5,025.6,15.2,0001.5,0006.67,0012.12,0006.22
2024-02-06 00:45:00,SystemResetWarning,0828.1,5.00,000.00,023.9,023.2,000.0,032.5,025.5,15.1,0001.6,0006.65,0011.98,0006.19
2024-02-06 00:46:00,SystemResetWarning,0828.1,5.01,000.00,023.9,023.1,000.0,032.5,025.5,14.9,0001.6,0006.64,0011.20,0006.16
2024-02-06 00:47:00,SystemResetWarning,0828.0,5.00,000.00,023.9,023.1,000.0,032.5,025.5,14.9,0001.7,0006.64,0011.18,0006.16
2024-02-06 00:48:00,SystemResetWarning,0828.1,5.00,000.00,023.9,023.1,000.0,032.4,025.5,15.0,0002.0,0006.65,0011.27,0006.15
2024-02-06 00:49:00,SystemResetWarning,0828.1,5.00,000.00,023.9,023.1,000.0,032.4,025.5,14.9,0001.9,0006.67,0011.25,0006.15
2024-02-06 00:50:00,SystemResetWarning,0828.2,5.00,000.00,023.9,023.2,000.0,032.4,025.5,14.9,0001.4,0006.65,0011.46,0006.14
2024-02-06 00:51:00,SystemResetWarning,0828.2,5.00,000.00,023.9,023.2,000.0,032.4,025.5,14.9,0001.2,0006.64,0011.72,0006.14
2024-02-06 00:52:00,SystemResetWarning,0828.2,5.01,000.00,023.9,023.2,000.0,032.4,025.6,14.8,0001.1,0006.62,0011.52,0006.13
2024-02-06 00:53:00,SystemResetWarning,0828.2,5.00,000.00,023.9,023.2,000.0,032.4,025.6,14.8,0001.2,0006.60,0011.77,0006.12
2024-02-06 00:54:00,SystemResetWarning,0828.2,5.00,000.00,023.8,023.1,000.0,032.4,025.5,15.0,0001.3,0006.57,0011.11,0006.11
2024-02-06 00:55:00,SystemResetWarning,0828.2,4.99,000.00,023.8,023.1,000.0,032.3,025.5,15.0,0001.4,0006.55,0011.31,0006.11
2024-02-06 00:56:00,SystemResetWarning,0828.2,5.00,000.00,023.8,023.1,000.0,032.3,025.5,14.9,0001.6,0006.55,0011.34,0006.14
2024-02-06 00:57:00,SystemResetWarning,0828.2,5.00,000.00,023.8,023.2,000.0,032.3,025.5,14.9,0001.4,0006.58,0011.32,0006.19
2024-02-06 00:58:00,SystemResetWarning,0828.1,5.00,000.00,023.8,023.2,000.0,032.3,025.6,15.0,0001.1,0006.60,0011.07,0006.23
2024-02-06 00:59:00,SystemResetWarning,0828.1,5.00,000.00,023.8,023.2,000.0,032.3,025.6,15.0,0000.8,0006.59,0010.73,0006.25
